Burlington, IA

4:41 AM CDT on August 22, 2017 (GMT -0500)
Burlington Regional

Weather History for KBRL - February, 2013

Change the Weather History Date:

Monday, February 11, 2013

  Actual Average Record
Temperature  
Mean Temperature 35 °F 29 °F  
Max Temperature 40 °F 38 °F 70 °F (1999)
Min Temperature 30 °F 20 °F -16 °F (1899)
Degree Days  
Heating Degree Days 30 36  
Month to date heating degree days 384 410  
Since 1 July heating degree days 3743 3811  
Cooling Degree Days 0 0  
Month to date cooling degree days 0 0  
Year to date cooling degree days 0 0  
Moisture  
Dew Point 23 °F    
Average Humidity 67    
Maximum Humidity 78    
Minimum Humidity 56    
Precipitation  
Precipitation 0.00 in 0.06 in 1.14 in (1998)
Month to date precipitation 1.22 0.54  
Year to date precipitation 3.32 1.78  
Sea Level Pressure  
Sea Level Pressure 29.96 in    
Wind  
Wind Speed 15 mph (WNW)    
Max Wind Speed 36 mph    
Max Gust Speed 44 mph    
Visibility 10 miles    
Events      
T = Trace of Precipitation, MM = Missing Value Source: NWS Daily Summary

Daily Weather History Graph

Daily Weather History Graph

Search for Another Location

Airport or City:

Trip Planner

Search our weather history database for the weather conditions in past years. The results will help you decide how hot, cold, wet, or windy it might be!

Date:

Astronomy

Feb. 11, 2013 Rise Set
Actual Time 7:03 AM CST 5:34 PM CST
Civil Twilight 6:34 AM CST 6:03 PM CST
Nautical Twilight 6:02 AM CST 6:35 PM CST
Astronomical Twilight 5:30 AM CST 7:07 PM CST
Moon 7:27 AM CST (2/11) 7:33 PM CST (2/11)
Length of Visible Light 11h 28m
Length of Day
10h 31m
Waxing Crescent, 3% of the Moon is Illuminated
Feb 11
Waxing Crescent
Feb 17
First Quarter
Feb 25
Full
Mar 4
Last Quarter
Mar 11
New

Hourly Weather History & Observations

Time (CST) Temp. Windchill Dew Point Humidity Pressure Visibility Wind Dir Wind Speed Gust Speed Precip Events Conditions
12:53 AM 36.0 °F 23.5 °F 25.0 °F 64% 29.67 in 10.0 mi WSW 27.6 mph 41.4 mph N/A   Overcast
1:53 AM 35.1 °F 23.5 °F 25.0 °F 67% 29.69 in 10.0 mi West 21.9 mph 34.5 mph N/A   Overcast
2:53 AM 35.1 °F 22.2 °F 21.9 °F 59% 29.72 in 10.0 mi West 27.6 mph 41.4 mph N/A   Overcast
3:53 AM 34.0 °F 21.5 °F 21.9 °F 61% 29.73 in 10.0 mi West 24.2 mph 36.8 mph N/A   Overcast
4:53 AM 34.0 °F 23.0 °F 21.9 °F 61% 29.76 in 10.0 mi West 18.4 mph 26.5 mph N/A   Overcast
5:53 AM 33.1 °F 23.4 °F 23.0 °F 66% 29.80 in 10.0 mi West 13.8 mph 21.9 mph N/A   Overcast
6:53 AM 33.1 °F 20.9 °F 21.0 °F 61% 29.83 in 10.0 mi West 21.9 mph 32.2 mph N/A   Overcast
7:53 AM 33.1 °F 20.6 °F 19.9 °F 59% 29.87 in 10.0 mi WNW 23.0 mph 35.7 mph N/A   Overcast
8:53 AM 33.1 °F 23.4 °F 21.9 °F 64% 29.90 in 10.0 mi WNW 13.8 mph 19.6 mph N/A   Overcast
9:53 AM 33.1 °F 22.2 °F 19.9 °F 59% 29.94 in 10.0 mi WNW 17.3 mph 31.1 mph N/A   Overcast
10:53 AM 34.0 °F 24.2 °F 21.0 °F 59% 29.97 in 10.0 mi West 15.0 mph 25.3 mph N/A   Overcast
11:53 AM 36.0 °F 24.7 °F 21.9 °F 57% 29.98 in 10.0 mi West 21.9 mph 32.2 mph N/A   Mostly Cloudy
12:53 PM 36.0 °F 25.6 °F 24.1 °F 62% 29.98 in 10.0 mi WNW 18.4 mph 27.6 mph N/A   Overcast
1:53 PM 37.9 °F 28.9 °F 25.0 °F 60% 29.99 in 10.0 mi WNW 16.1 mph 24.2 mph N/A   Mostly Cloudy
2:53 PM 39.9 °F 31.4 °F 26.1 °F 58% 30.01 in 10.0 mi WNW 16.1 mph 24.2 mph N/A   Mostly Cloudy
3:53 PM 37.0 °F 29.8 °F 26.1 °F 65% 30.02 in 10.0 mi WNW 10.4 mph 20.7 mph N/A   Mostly Cloudy
4:53 PM 36.0 °F 28.5 °F 25.0 °F 64% 30.05 in 10.0 mi NW 10.4 mph 19.6 mph N/A   Scattered Clouds
5:53 PM 33.1 °F 24.4 °F 25.0 °F 72% 30.08 in 10.0 mi NW 11.5 mph 17.3 mph N/A   Partly Cloudy
6:53 PM 32.0 °F 24.8 °F 24.1 °F 73% 30.09 in 10.0 mi NW 8.1 mph - N/A   Clear
7:53 PM 30.9 °F 23.5 °F 24.1 °F 76% 30.11 in 10.0 mi NW 8.1 mph - N/A   Partly Cloudy
8:13 PM 30.2 °F 24.3 °F 24.8 °F 80% 30.09 in 10.0 mi NW 5.8 mph - N/A   Mostly Cloudy
8:53 PM 30.0 °F 26.5 °F 24.1 °F 79% 30.11 in 10.0 mi WNW 3.5 mph - N/A   Mostly Cloudy
9:53 PM 30.9 °F 25.2 °F 24.1 °F 76% 30.13 in 10.0 mi WNW 5.8 mph - N/A   Overcast
10:53 PM 30.0 °F 22.4 °F 23.0 °F 75% 30.14 in 10.0 mi WNW 8.1 mph - N/A   Mostly Cloudy
11:13 PM 30.2 °F 21.9 °F 23.0 °F 75% 30.12 in 10.0 mi WNW 9.2 mph - N/A   Scattered Clouds
11:22 PM 30.2 °F 23.4 °F 23.0 °F 75% 30.11 in 10.0 mi NW 6.9 mph - N/A   Mostly Cloudy
11:53 PM 30.0 °F 25.2 °F 23.0 °F 75% 30.14 in 10.0 mi NW 4.6 mph - N/A   Overcast